WA2GUG Weather Reports


Display with metric or nautical units.
time (UTC)temp
F
wind
direction
speed
MPH
gust
MPH
rain 1hr
in
rain 24hr
in
rain mn
in
humidity
%
barometer
mb
20180925170119 56 1.0 7.0 0.00 0.00 0.00 99 1021.0
20180925165619 56 22 1.0 7.0 0.00 0.00 0.00 99 1021.0
20180925164620 56 225 0.0 2.0 0.00 0.00 0.00 99 1021.0
20180925164121 56 0.0 2.0 0.00 0.00 0.00 99 1020.0
20180925162619 56 236 0.0 2.0 0.00 0.00 0.00 99 1020.0
20180925162124 56 191 0.0 2.0 0.00 0.00 0.00 99 1021.0
20180925161619 56 225 0.0 0.0 0.00 0.00 0.00 99 1021.0
20180925160619 55 247 0.0 2.0 0.00 0.00 0.00 1020.0
20180925160119 55 281 0.0 2.0 0.00 0.00 0.00 99 1020.0
20180925155619 55 67 0.0 1.0 0.00 0.00 0.00 1020.0
20180925154619 55 67 0.0 1.0 0.00 0.00 0.00 99 1021.0
20180925153119 54 67 1.0 3.0 0.00 0.00 0.00 1021.0
20180925152619 55 112 1.0 3.0 0.00 0.00 0.00 99 1021.0
20180925152119 55 112 1.0 3.0 0.00 0.00 0.00 99 1021.0
20180925151619 55 45 1.0 3.0 0.00 0.00 0.00 99 1021.0
20180925150618 54 105 0.0 2.0 0.00 0.00 0.00 99 1021.0
20180925150119 53 202 0.0 2.0 0.00 0.00 0.00 99 1021.0
20180925145618 53 225 1.0 2.0 0.00 0.00 0.00 99 1021.0
20180925144618 53 112 1.0 2.0 0.00 0.00 0.00 99 1021.0
20180925144119 53 45 0.0 4.0 0.00 0.00 0.00 99 1021.0
20180925141619 52 1.0 2.0 0.00 0.00 0.00 99 1022.0
20180925140619 52 45 1.0 99.0 0.00 0.00 0.00 99 1022.1
20180925135618 53 67 0.0 1.0 0.00 0.00 0.00 99 1023.0
20180925134619 52 0.0 2.0 0.00 0.00 0.00 99 1022.0
20180925133619 52 67 1.0 2.0 0.00 0.00 0.00 1022.0
20180925132619 52 78 1.0 3.0 0.00 0.00 0.00 1023.0
20180925131618 52 0.0 3.0 0.00 0.00 0.00 99 1022.0
20180925130618 52 82 0.0 1.0 0.00 0.00 0.00 99 1022.0
20180925130119 52 101 0.0 1.0 0.00 0.00 0.00 99 1022.0
20180925124619 52 135 0.0 1.0 0.00 0.00 0.00 99 1023.0
20180925123618 51 202 0.0 1.0 0.00 0.00 0.00 99 1022.0
20180925115119 50 0.0 1.0 0.00 0.00 0.00 99 1023.0
20180925113618 50 90 1.0 3.0 0.00 0.00 0.00 99 1023.0
20180925111622 49 202 1.0 1.0 0.00 0.00 0.00 1024.0
20180925110618 49 120 0.0 3.0 0.00 0.00 0.00 99 1024.0
20180925110118 49 67 1.0 4.0 0.00 0.00 0.00 1024.0
20180925105618 49 146 1.0 4.0 0.00 0.00 0.00 99 1023.0
20180925105118 49 90 1.0 3.0 0.00 0.00 0.00 99 1023.0
20180925104118 49 94 0.0 1.0 0.00 0.00 0.00 1023.0
20180925103618 49 191 0.0 1.0 0.00 0.00 0.00 99 1024.0
20180925101618 49 90 0.0 2.0 0.00 0.00 0.00 1024.0
20180925100618 49 191 0.0 2.0 0.00 0.00 0.00 99 1024.0
20180925095619 49 123 0.0 1.0 0.00 0.00 0.00 99 1023.0
20180925094618 50 1.0 2.0 0.00 0.00 0.00 99 1024.0
20180925093618 50 78 0.0 1.0 0.00 0.00 0.00 99 1024.0
20180925091625 50 112 1.0 3.0 0.00 0.00 0.00 99 1024.0
20180925090618 50 1.0 3.0 0.00 0.00 0.00 87 1024.0
20180925085618 51 22 1.0 2.0 0.00 0.00 0.00 1024.0
20180925084618 51 67 1.0 3.0 0.00 0.00 0.00 99 1024.0
20180925083618 52 101 0.0 2.0 0.00 0.00 0.00 99 1024.0
20180925082618 52 180 0.0 3.0 0.00 0.00 0.00 1024.0
20180925081618 52 67 0.0 2.0 0.00 0.00 0.00 99 1024.0
20180925080618 52 112 0.0 2.0 0.00 0.00 0.00 99 1024.0
20180925074618 52 0.0 2.0 0.00 0.00 0.00 99 1025.0
20180925073618 52 202 0.0 2.0 0.00 0.00 0.00 99 1025.0
20180925071619 52 236 0.0 2.0 0.00 0.00 0.00 99 1025.0
20180925070618 52 22 1.0 1.0 0.00 0.00 0.00 99 1025.0
20180925065618 52 135 0.0 1.0 0.00 0.00 0.00 99 1025.0
20180925064617 52 1.0 3.0 0.00 0.00 0.00 1025.0
20180925063119 52 180 199.0 99.0 0.00 0.00 0.00 99 1025.0
20180925061621 52 56 1.0 2.0 0.00 0.00 0.00 87 1025.0
20180925055119 52 157 1.0 2.0 0.00 0.00 0.00 99 1025.0
20180925052118 52 191 1.0 2.0 0.00 0.00 0.00 99 1025.0
20180925051118 53 142 1.0 1.0 0.00 0.00 0.00 99 1026.0
20180925050618 53 22 0.0 3.0 0.00 0.00 0.00 99 1026.0
20180925043618 53 0.0 1.0 0.00 0.00 0.00 1026.0
20180925041618 53 202 0.0 4.0 0.00 0.00 0.00 99 1026.0
20180925035618 53 135 0.0 1.0 0.00 0.00 0.00 99 1026.0
20180925035118 53 22 0.0 2.0 0.00 0.00 0.00 99 1026.0
20180925034118 53 112 0.0 1.0 0.00 0.00 0.00 99 1026.0
20180925033118 53 45 0.0 1.0 0.00 0.00 0.00 99 1026.0
20180925032118 53 82 0.0 2.0 0.00 0.00 0.00 99 1026.0
20180925031617 53 0.0 2.0 0.00 0.00 0.00 99 1026.0
20180925030617 53 285 0.0 1.0 0.00 0.00 0.00 99 1026.0
20180925025118 53 78 1.0 2.0 0.00 0.00 0.00 99 1026.0
20180925024118 53 146 0.0 2.0 0.00 0.00 0.00 99 1026.0
20180925023118 53 172 1.0 3.0 0.00 0.00 0.00 99 1026.0
20180925022118 54 0.0 4.0 0.00 0.00 0.00 99 1026.0
20180925020617 54 7 0.0 5.0 0.00 0.00 0.00 99 1026.0
20180925015617 54 292 0.0 1.0 0.00 0.00 0.00 99 1026.0
20180925015119 54 45 0.0 2.0 0.00 0.00 0.00 99 1026.0
20180925014118 54 298 1.0 1.0 0.00 0.00 0.00 99 1026.0
20180925013618 54 337 0.0 2.0 0.00 0.00 0.00 99 1026.0
20180925013118 54 67 0.0 4.0 0.00 0.00 0.00 99 1026.0
20180925011119 54 82 0.0 2.0 0.00 0.00 0.00 99 1026.0
20180925010618 54 22 1.0 3.0 0.00 0.00 0.00 99 1026.0
20180925010118 54 1.0 3.0 0.00 0.00 0.00 99 1025.0
20180925004118 54 157 1.0 2.0 0.00 0.00 0.00 99 1025.0
20180925003118 54 75 1.0 3.0 0.00 0.00 0.00 99 1025.0
20180925002122 55 168 1.0 3.0 0.00 0.00 0.00 99 1025.0
20180925001617 55 1.0 3.0 0.00 0.00 0.00 99 1025.0
20180924233118 55 45 0.0 1.0 0.00 0.00 0.00 1025.0
20180924224618 55 22 119.0 99.0 0.00 0.00 0.00 99 1025.0
20180924223118 56 211 0.0 3.0 0.00 0.00 0.00 99 1025.0
20180924222118 56 45 0.0 1.0 0.00 0.00 0.00 99 1025.0
20180924221617 56 247 0.0 2.0 0.00 0.00 0.00 99 1025.0
20180924220617 56 67 1.0 2.0 0.00 0.00 0.00 99 1025.0
20180924220118 57 90 0.0 99.0 0.00 0.00 0.00 99 1024.0
20180924213118 57 225 0.0 2.0 0.00 0.00 0.00 99 1025.0
20180924211617 57 157 1.0 3.0 0.00 0.00 0.00 98 1025.0
20180924211118 58 157 1.0 3.0 0.00 0.00 0.00 99 1025.0
20180924210617 58 157 0.0 4.0 0.00 0.00 0.00 98 1025.0
20180924210117 58 247 2.0 4.0 0.00 0.00 0.00 1025.0
20180924205118 58 112 1.0 4.0 0.00 0.00 0.00 83 1025.0
20180924204617 59 315 1.0 4.0 0.00 0.00 0.00 96 1025.0
20180924203617 59 67 1.0 2.0 0.00 0.00 0.00 98 1025.0
20180924203117 59 240 0.0 2.0 0.00 0.00 0.00 98 1025.0
20180924201632 60 247 1.0 2.0 0.00 0.00 0.00 95 1025.0
20180924200617 61 202 0.0 3.0 0.00 0.00 0.00 95 1025.0
20180924200117 62 105 1.0 3.0 0.00 0.00 0.00 1025.0
20180924195617 62 337 1.0 2.0 0.00 0.00 0.00 95 1025.0
20180924195117 62 78 1.0 2.0 0.00 0.00 0.00 94 1025.0
20180924194617 61 315 0.0 2.0 0.00 0.00 0.00 95 1025.0
20180924194117 58 232 1.0 2.0 0.00 0.00 0.00 96 1025.0
20180924193617 62 67 1.0 1.0 0.00 0.00 0.00 99 1024.1
20180924193117 63 123 0.0 2.0 0.00 0.00 0.00 1025.0
20180924185117 64 202 1.0 2.0 0.00 0.00 0.00 91 1025.0
20180924184617 65 247 1.0 2.0 0.00 0.00 0.00 93 1025.0
20180924184117 65 146 1.0 2.0 0.00 0.00 0.00 1025.0
20180924183617 64 45 1.0 2.0 0.00 0.00 0.00 93 1025.0
20180924183119 64 232 1.0 2.0 0.00 0.00 0.00 90 1185.1
20180924181617 64 180 0.0 2.0 0.00 0.00 0.00 99 1025.0
20180924180617 61 202 1.0 3.0 0.00 0.00 0.00 97 1025.0
20180924175618 64 168 1.0 3.0 0.00 0.00 0.00 94 1026.0
20180924175117 66 236 1.0 5.0 0.00 0.00 0.00 94 1026.0
20180924174617 66 45 2.0 5.0 0.00 0.00 0.00 95 1026.0
20180924174117 66 337 2.0 4.0 0.00 0.00 0.00 95 1026.0
20180924173617 65 1.0 2.0 0.00 0.00 0.00 92 1025.1
20180924173117 64 112 1.0 3.0 0.00 0.00 0.00 86 1025.0
20180924172117 64 90 1.0 3.0 0.00 0.00 0.00 94 1026.0